Torna al catalogo

STARLINK-32822

AttivoComunicazioniVLEO
NORAD 62868·PAYLOAD·🇺🇸 United States

Lanciato Feb 1, 2025 da Vandenberg Space Force Base

Loading…

Prossimi Passaggi (prossime 24 ore)

TLE

AggiornatoSource: CelesTrak SupGP

Epoca: Sep 15, 2026, 03:23 UTC

1 62868C 25022Q   26258.14145833  .00052934  00000+0  15640-2 0  2581
2 62868  53.1585 326.4954 0001059  95.6736 142.6492 15.34364454    11

Traccia STARLINK-32822 in tempo reale con AllMySat

Download on the App Store